TimeCST,TemperatureF,Dew PointF,Humidity,Sea Level PressureIn,VisibilityMPH,Wind Direction,Wind SpeedMPH,Gust SpeedMPH,PrecipitationIn,Events,Conditions,WindDirDegrees,DateUTC
12:13 AM,8.6,3.2,79,29.84,7.0,Calm,Calm,-,N/A,,Overcast,0,2013-12-05 06:13:00
12:33 AM,8.6,3.2,79,29.86,10.0,Calm,Calm,-,N/A,,Overcast,0,2013-12-05 06:33:00
12:53 AM,8.6,3.2,79,29.86,7.0,Calm,Calm,-,N/A,,Overcast,0,2013-12-05 06:53:00
1:13 AM,8.6,1.4,73,29.87,7.0,Calm,Calm,-,N/A,,Overcast,0,2013-12-05 07:13:00
1:33 AM,6.8,1.4,79,29.88,7.0,Calm,Calm,-,N/A,,Overcast,0,2013-12-05 07:33:00
1:54 AM,6.8,1.4,79,29.89,7.0,Calm,Calm,-,N/A,,Overcast,0,2013-12-05 07:54:00
2:13 AM,6.8,1.4,79,29.89,10.0,Calm,Calm,-,N/A,,Mostly Cloudy,0,2013-12-05 08:13:00
2:33 AM,6.8,1.4,79,29.91,7.0,Calm,Calm,-,N/A,,Scattered Clouds,0,2013-12-05 08:33:00
2:53 AM,6.8,1.4,79,29.92,7.0,Calm,Calm,-,N/A,,Clear,0,2013-12-05 08:53:00
3:13 AM,6.8,-0.4,72,29.92,7.0,Calm,Calm,-,N/A,,Clear,0,2013-12-05 09:13:00
3:33 AM,6.8,-0.4,72,29.93,4.0,Calm,Calm,-,N/A,,Haze,0,2013-12-05 09:33:00
3:53 AM,5.0,-0.4,78,29.94,7.0,Calm,Calm,-,N/A,,Clear,0,2013-12-05 09:53:00
4:13 AM,5.0,-0.4,78,29.95,4.0,Calm,Calm,-,N/A,,Haze,0,2013-12-05 10:13:00
4:33 AM,3.2,-2.2,78,29.97,4.0,Calm,Calm,-,N/A,,Haze,0,2013-12-05 10:33:00
4:53 AM,3.2,-2.2,78,29.98,7.0,Calm,Calm,-,N/A,,Clear,0,2013-12-05 10:53:00
5:13 AM,3.2,-2.2,78,29.98,10.0,Calm,Calm,-,N/A,,Clear,0,2013-12-05 11:13:00
5:33 AM,3.2,-2.2,78,29.98,4.0,Calm,Calm,-,N/A,,Haze,0,2013-12-05 11:33:00
5:53 AM,3.2,-2.2,78,29.99,10.0,Calm,Calm,-,N/A,,Clear,0,2013-12-05 11:53:00
6:13 AM,3.2,-4.0,72,30.00,10.0,Calm,Calm,-,N/A,,Clear,0,2013-12-05 12:13:00
6:33 AM,3.2,-4.0,72,30.01,10.0,Calm,Calm,-,N/A,,Clear,0,2013-12-05 12:33:00
6:54 AM,3.2,-4.0,72,30.02,10.0,Calm,Calm,-,N/A,,Clear,0,2013-12-05 12:54:00
7:13 AM,1.4,-4.0,78,30.03,10.0,Calm,Calm,-,N/A,,Clear,0,2013-12-05 13:13:00
7:34 AM,1.4,-4.0,78,30.05,10.0,Calm,Calm,-,N/A,,Clear,0,2013-12-05 13:34:00
7:53 AM,1.4,-4.0,78,30.05,10.0,Calm,Calm,-,N/A,,Clear,0,2013-12-05 13:53:00
8:14 AM,1.4,-4.0,78,30.06,10.0,Calm,Calm,-,N/A,,Clear,0,2013-12-05 14:14:00
8:33 AM,1.4,-4.0,78,30.07,10.0,Calm,Calm,-,N/A,,Clear,0,2013-12-05 14:33:00
8:53 AM,3.2,-4.0,72,30.08,10.0,Calm,Calm,-,N/A,,Clear,0,2013-12-05 14:53:00
9:13 AM,3.2,-4.0,72,30.09,10.0,Calm,Calm,-,N/A,,Clear,0,2013-12-05 15:13:00
9:33 AM,3.2,-4.0,72,30.10,10.0,Calm,Calm,-,N/A,,Clear,0,2013-12-05 15:33:00
9:54 AM,3.2,-4.0,72,30.12,10.0,Calm,Calm,-,N/A,,Clear,0,2013-12-05 15:54:00
10:14 AM,5.0,-2.2,72,30.13,7.0,Calm,Calm,-,N/A,,Clear,0,2013-12-05 16:14:00
10:33 AM,5.0,-2.2,72,30.14,7.0,Calm,Calm,-,N/A,,Clear,0,2013-12-05 16:33:00
10:53 AM,6.8,-2.2,67,30.14,7.0,Calm,Calm,-,N/A,,Clear,0,2013-12-05 16:53:00
11:13 AM,6.8,-2.2,67,30.15,10.0,Calm,Calm,-,N/A,,Clear,0,2013-12-05 17:13:00
11:33 AM,6.8,-2.2,67,30.15,7.0,Calm,Calm,-,N/A,,Clear,0,2013-12-05 17:33:00
11:54 AM,6.8,-2.2,67,30.15,5.0,Calm,Calm,-,N/A,,Haze,0,2013-12-05 17:54:00
12:13 PM,6.8,-2.2,67,30.15,5.0,Calm,Calm,-,N/A,,Haze,0,2013-12-05 18:13:00
12:33 PM,6.8,-2.2,67,30.15,3.0,West,19.6,-,N/A,,Haze,280,2013-12-05 18:33:00
12:53 PM,6.8,-0.4,72,30.16,4.0,West,23.0,-,N/A,,Haze,280,2013-12-05 18:53:00
1:13 PM,6.8,-2.2,67,30.15,2.0,WNW,24.2,29.9,N/A,,Haze,290,2013-12-05 19:13:00
1:34 PM,6.8,-0.4,72,30.15,4.0,WNW,20.7,28.8,N/A,,Haze,290,2013-12-05 19:34:00
1:53 PM,6.8,-0.4,72,30.16,10.0,West,19.6,23.0,N/A,,Clear,280,2013-12-05 19:53:00
2:13 PM,6.8,-0.4,72,30.16,7.0,West,19.6,-,N/A,,Clear,280,2013-12-05 20:13:00
2:33 PM,6.8,-0.4,72,30.16,7.0,WNW,19.6,-,N/A,,Clear,290,2013-12-05 20:33:00
2:53 PM,6.8,-2.2,67,30.16,7.0,West,23.0,-,N/A,,Clear,280,2013-12-05 20:53:00
3:14 PM,6.8,-2.2,67,30.17,7.0,West,19.6,26.5,N/A,,Scattered Clouds,280,2013-12-05 21:14:00
3:34 PM,6.8,-2.2,67,30.18,10.0,West,18.4,-,N/A,,Clear,280,2013-12-05 21:34:00
3:53 PM,5.0,-2.2,72,30.19,10.0,West,18.4,-,N/A,,Clear,280,2013-12-05 21:53:00
4:13 PM,5.0,-2.2,72,30.19,10.0,West,16.1,-,N/A,,Clear,280,2013-12-05 22:13:00
4:33 PM,3.2,-4.0,72,30.19,10.0,West,12.7,-,N/A,,Clear,280,2013-12-05 22:33:00
4:53 PM,3.2,-4.0,72,30.20,10.0,West,10.4,-,N/A,,Clear,280,2013-12-05 22:53:00
5:13 PM,1.4,-5.8,72,30.21,10.0,West,9.2,-,N/A,,Clear,280,2013-12-05 23:13:00
5:33 PM,1.4,-5.8,72,30.22,10.0,West,11.5,-,N/A,,Clear,280,2013-12-05 23:33:00
5:54 PM,1.4,-5.8,72,30.23,10.0,West,10.4,-,N/A,,Clear,270,2013-12-05 23:54:00
6:14 PM,-0.4,-5.8,78,30.24,10.0,West,6.9,-,N/A,,Clear,280,2013-12-06 00:14:00
6:33 PM,-0.4,-5.8,78,30.25,10.0,West,10.4,-,N/A,,Clear,280,2013-12-06 00:33:00
6:53 PM,-0.4,-7.6,72,30.26,10.0,West,10.4,-,N/A,,Clear,280,2013-12-06 00:53:00
7:13 PM,-2.2,-7.6,78,30.27,10.0,West,9.2,-,N/A,,Scattered Clouds,280,2013-12-06 01:13:00
7:34 PM,-2.2,-7.6,78,30.28,10.0,West,8.1,-,N/A,,Scattered Clouds,280,2013-12-06 01:34:00
7:53 PM,-2.2,-9.4,71,30.29,10.0,West,6.9,-,N/A,,Clear,270,2013-12-06 01:53:00
8:13 PM,-4.0,-9.4,78,30.30,10.0,West,4.6,-,N/A,,Clear,260,2013-12-06 02:13:00
8:33 PM,-5.8,-11.2,77,30.31,10.0,West,4.6,-,N/A,,Scattered Clouds,270,2013-12-06 02:33:00
8:53 PM,-5.8,-11.2,77,30.31,10.0,West,8.1,-,N/A,,Scattered Clouds,270,2013-12-06 02:53:00
9:13 PM,-5.8,-11.2,77,30.32,10.0,West,6.9,-,N/A,,Clear,280,2013-12-06 03:13:00
9:33 PM,-4.0,-9.4,78,30.32,10.0,West,9.2,-,N/A,,Clear,270,2013-12-06 03:33:00
9:53 PM,-5.8,-11.2,77,30.33,10.0,WSW,6.9,-,N/A,,Clear,250,2013-12-06 03:53:00
10:13 PM,-5.8,-9.4,84,30.33,10.0,West,8.1,-,N/A,,Clear,270,2013-12-06 04:13:00
10:35 PM,-5.8,-9.4,84,30.34,10.0,West,9.2,-,N/A,,Clear,270,2013-12-06 04:35:00
10:53 PM,-5.8,-11.2,77,30.34,10.0,West,9.2,-,N/A,,Clear,270,2013-12-06 04:53:00
11:13 PM,-5.8,-11.2,77,30.34,10.0,West,8.1,-,N/A,,Clear,270,2013-12-06 05:13:00
11:33 PM,-5.8,-11.2,77,30.35,10.0,West,10.4,-,N/A,,Clear,270,2013-12-06 05:33:00
11:53 PM,-5.8,-11.2,77,30.35,10.0,West,6.9,-,N/A,,Clear,270,2013-12-06 05:53:00